www.pogodaiklimat.ru

Погода и климат >> Архив погоды >> Россия >> Якутия >> Юрты


ПОГОДА в Юртах

  • Прогноз погоды в Юртах
  • Монитор погоды в Юртах
  • Климат города

АРХИВ ПОГОДЫ в Юртах

Время (UTC), дата Ветер
(напр.,м/с)
 
Видим.   Явления Облачность Т
(С)
Тd
(С)
f
(%)
Тe
(С)
Тes
(С)
Комфортность P
(гПа)
Po
(гПа)
Тmin
(С)
Tmax
(С)
R
(мм)
R24
(мм)
S
(см)
00 10.08 Ю 1 50 км {дождь} 10/0
[Ac As]
+18.5 +10.3 59 +20 +23 1010.3 943.5
06 10.08 Ю 1 50 км 10/0
[Ac As]
+17.8 +11.8 68 +19 +21 1011.2 944.3
09 10.08 Ю 1 50 км 10/0
[Ac As]
+18.2 +12.7 70 +20 +20 1010.6 943.8 +18.2 0.0
12 10.08 штиль 0 50 км 8/0
[Ac As]
+15.0 +11.5 80 +15 +15 1011.5 943.9
15 10.08 Ю 1 50 км 10/0
[Ac As]
+16.0 +13.3 84 +17 +17 1011.5 944.2
18 10.08 Ю 1 50 км 10/0
[Ac As]
+15.0 +14.1 94 +15 +15 1012.1 944.5
21 10.08 штиль 0 50 км 10/0
[Ac As]
+14.7 +11.5 81 +14 +15 1013.4 945.6 +14.0
03 11.08 штиль 0 20 км слабый дождь 10/8 1000 м
[Sc As op]
+17.4 +14.3 82 +17 +18 1012.6 945.6
06 11.08 штиль 0 10 км слабый дождь 10/8 1000 м
[Sc As op]
+18.5 +16.0 85 +19 +19 1011.8 945.1
09 11.08 штиль 0 20 км слабый дождь 10/8 600 м
[Sc As op]
+17.4 +15.9 91 +17 +17 1011.1 944.2 +18.5 0.1
12 11.08 штиль 0 50 км {дождь} 10/3 600 м
[Sc Ac As]
+15.5 +14.6 94 +15 +15 1011.7 944.3
15 11.08 штиль 0 50 км 10/0
[Ac As]
+13.5 +13.1 97 +13 +13 1011.4 943.5
21 11.08 штиль 0 10 км слабый дождь 10/4 600 м
[Frnb As op]
+14.5 +13.6 94 +14 +14 1010.3 942.8 +13.5
00 12.08 штиль 0 50 км {дождь} 10/3 600 м
[Sc Ac As]
+15.3 +14.4 94 +15 +17 1009.2 942.0
03 12.08 Ю 1 50 км 8/8 1000 м
[Sc]
+18.4 +15.1 81 +20 +22 1007.4 940.9
06 12.08 штиль 0 50 км 9/9
[Cb cap]
+21.8 +17.4 76 +26 +27 душно 1005.1 939.6
09 12.08 штиль 0 50 км {ливн. осадки} 10/0 600 м
[As op]
+18.4 +15.1 81 +19 +19 1007.3 940.7 +21.8 9
12 12.08 Ю 3 50 км {ливн. осадки} 8/8 600 м
[Cb cap]
+15.0 +13.6 91 +14 +14 1008.0 940.7
15 12.08 штиль 0 50 км 10/9 600 м
[Cb cap]
+13.5 +12.7 95 +13 -84 1008.4 940.8
18 12.08 Ю 1 50 км 9/9 600 м
[Cb cap]
+12.6 +12.0 96 +13 +13 1008.8 940.9
21 12.08 Ю 1 50 км 8/8 600 м
[Cb cap]
+12.8 +11.1 89 +13 +13 1009.5 941.5 +12.8 2
00 13.08 Ю 2 50 км 10/10 600 м
[Cb cap]
+14.4 +15.0 100 +14 +14 1008.9 942.1
03 13.08 штиль 0 50 км слабый дождь 10/8 1000 м
[Sc As op]
+19.0 +15.1 78 +20 +21 1008.7 942.3
06 13.08 штиль 0 50 км {дождь} 8/8 1000 м
[Sc]
+20.6 +15.4 72 +23 +25 комфорт 1008.8 942.8
09 13.08 штиль 0 50 км 8/8 600 м
[Cb cap]
+23.8 +14.6 56 +26 +27 жарко 1007.9 942.6 +23.8 1
12 13.08 штиль 0 50 км 8/6 600 м
[Cb cap]
+17.5 +15.6 89 +17 +17 1012.1 945.1
15 13.08 штиль 0 50 км 6/6 1000 м
[Sc]
+13.1 +12.5 96 +13 +13 1014.4 946.3
18 13.08 штиль 0 50 км 4/4 1000 м
[Sc]
+10.9 +10.5 97 +10 +10 1015.5 946.7
21 13.08 штиль 0 50 км 4/4 1000 м
[Sc]
+10.9 +10.9 100 +10 +11 1018.2 949.2
00 14.08 штиль 0 50 км 3/0
[Ci fib]
+18.0 +14.9 82 +18 +26 1017.0 949.8
03 14.08 штиль 0 50 км 4/4 1000 м
[Sc]
+21.8 +13.7 60 +25 +32 комфорт 1015.5 949.3
06 14.08 штиль 0 50 км 4/4 1000 м
[Cu hum]
+23.5 +12.7 51 +26 +30 жарко 1015.0 949.1
09 14.08 штиль 0 50 км 6/3 1000 м
[Sc Ci fib]
+23.0 +13.8 56 +26 +27 жарко 1014.7 948.7 +23.5
12 14.08 штиль 0 50 км ясно +14.5 +13.2 92 +14 +14 1017.1 949.1
15 14.08 штиль 0 50 км ясно +8.0 +7.8 99 +7 +7 1019.3 949.5
18 14.08 штиль 0 50 км ясно +6.0 +5.3 95 +5 +5 1020.7 950.3
21 14.08 Ю 2 50 км ясно +9.8 +9.4 97 +8 +9 1020.5 951.0 +5.0
00 15.08 Ю 3 50 км 3/0
[Ci fib]
+15.7 +11.6 77 +15 +20 1019.5 951.5
03 15.08 Ю 2 50 км 1/1 1000 м
[Cu hum]
+23.8 +12.1 48 +26 +33 жарко 1015.1 949.2
06 15.08 Ю 1 50 км 3/3 1500 м
[Cu hum]
+26.0 +12.8 44 +28 +32 жарко 1013.1 947.9
09 15.08 Ю 1 50 км ясно +24.6 +13.3 49 +27 +27 жарко 1012.4 946.9 +26.2
12 15.08 ЮВ 1 50 км ясно +15.2 +13.9 92 +16 +16 1017.4 947.2
15 15.08 Ю 2 50 км ясно +19.9 +11.2 57 +22 +22 комфорт 1014.3 947.5
18 15.08 Ю 3 50 км ясно +17.3 +7.6 53 +17 +17 1015.4 948.0
21 15.08 Ю 8-10
{13}
50 км ясно +16.5 +2.3 38 +15 +15 1015.9 948.4 +16.2
00 16.08 Ю 8-11
{13}
50 км 3/0
[Ci fib]
+17.4 +11.7 69 +16 +17 1014.6 947.4
03 16.08 Ю 3
{10}
50 км 6/4 1000 м
[Sc Ci fib]
+23.4 +14.5 57 +27 +31 душно 1010.8 945.2
06 16.08 Ю 1 50 км 6/4 1000 м
[Sc Ci fib]
+28.0 +14.7 44 +30 +33 жарко 1008.7 944.2
09 16.08 Ю 1 50 км 4/4 1000 м
[Sc]
+25.7 +16.1 55 +29 +29 душно 1009.0 943.6 +28.2
12 16.08 ЮВ 2 50 км 10/0
[Ac trans Cs]
+16.4 +13.4 82 +17 +17 1010.3 943.1
15 16.08 штиль 0 50 км 9/0
[Ac As]
+13.4 +12.7 96 +13 +13 1011.5 943.5
18 16.08 Ю 3 50 км 8/0
[Ac As]
+14.1 +12.1 88 +13 +13 1011.3 943.6
21 16.08 Ю 4 50 км 8/0
[Ac trans]
+15.9 +11.7 76 +15 +16 1011.6 944.2 +13.4

 

Местоположение метеостанции Юрты (Якутия, Россия): широта 64.05 долгота 141.80 высота над уровнем моря 590 м.

В архиве по умолчанию представлена погода в Юртах за последнюю неделю. Архивные данные за месяц целиком и за предыдущие месяцы, начиная с января 2011 года, Вы можете получить, выбрав интересующий диапазон дат из раскрывающегося списка и нажав кнопку "Ввод!".

Внимание! Время в таблицах - всемирное. Для получения местного времени необходимо прибавить поправку, которая в Юртах равна 10 ч.

Смотрите также архив погоды в соседних городах и на ближайших метеорологических станциях:

Погода в Агаякане (Якутия, Россия) (80 км)
Погода в Усть-Нере (Якутия, Россия) (82 км)
Погода в Оймяконе (Якутия, Россия) (110 км)
Погода в Восточной (Якутия, Россия) (142 км)
Погода в Делянкире (Якутия, Россия) (187 км)
Погода в Усть-Моме (Якутия, Россия) (275 км)
Погода в Теплом Ключе (Якутия, Россия) (286 км)
Погода в Томпо (Якутия, Россия) (293 км)
Погода в Иэме (Якутия, Россия) (317 км)
Погода в Сусумане (Магаданская область, Россия) (344 км)

Пояснения к столбцам:

Ветер - указаны скорость ветра в м/с - средняя за 10 мин, порывы в срок и между сроками (в фигурных скобках) и направление, откуда дует ветер: С - северный, СВ - северо-восточный, В - восточный, ЮВ - юго-восточный, Ю - южный, ЮЗ - юго-западный, З - западный, СЗ - северо-западный.
Видимость - горизонтальная дальность видимости в метрах или километрах. При видимости от 1 до 10 км при отсутствии осадков обычно наблюдается дымка, при ухудшении видимости до 1 км и менее - туман. В сухую погоду видимость может ухудшаться дымом, пылью или мглою.
Явления - указаны атмосферные явления, наблюдавшиеся в срок или в последний час перед сроком; фигурными скобками обозначены явления, наблюдавшиеся между сроками (за 1-3 часа до срока); квадратными скобками обозначены град или гололедные отложения с указанием их диаметра в мм.
Облачность - указаны через наклонную черту общая и нижняя облачность в баллах и высота нижней границы облаков в метрах; квадратными скобками обозначены формы облаков: Ci - перистые, Cs - перисто-слоистые, Cc - перисто-кучевые, Ac - высококучевые, As - высокослоистые, Sc - слоисто-кучевые, Ns - слоисто-дождевые, Cu - кучевые, Cb - кучево-дождевые. Подробнее классификацию облаков см. в Атласе облаков (PDF).
T - Температура воздуха - температура, измеренная на высоте 2 м над землей.
Td - Температура точки росы - температура, при понижении до которой содержащийся в воздухе водяной пар достигнет насыщения.
f - Относительная влажность воздуха - влажноcть воздуха, измеренная на высоте 2 м над землей.
Te - Эффективная температура - температура, которую ощущает одетый по сезону человек в тени. Характеристика душности погоды. При расчете учитывается влияние влажности воздуха и скорости ветра на теплоощущения человека.
Tes - Эффективная температура на солнце - температура, которую ощущает человек, с поправкой на солнечный нагрев. Характеристика знойности погоды. Зависит от высоты солнца над горизонтом, облачности и скорости ветра. Ночью, в пасмурную погоду, а также при ветре 12 м/с и более поправка равна нулю.
P - Атмосферное давление - приведенное к уровню моря атмосферное давление.
Po - Атмосферное давление - измеренное на уровне метеостанции атмосферное давление.
Tmin - Минимальная температура - минимум температуры воздуха на высоте 2 м над землей.
Tmax - Максимальная температура - максимум температуры воздуха на высоте 2 м над землей.
R - Количество осадков - Количество выпавших осадков за период времени, мм. При наведении курсора мыши на число - период времени, за который выпало указанное количество осадков.
R24 - Количество осадков - Количество выпавших осадков за 24 часа, мм.
S - Снежный покров - Высота снежного покрова, см. При наведении курсора мыши на число - состояние снежного покрова и степень покрытия местности в баллах.